Other Public Products
Issued by NWS Grand Forks, ND

Home | Current Version | Previous Version | Graphics & Text | Print | Product List | Glossary On
Versions: 1 2 3 4 5 6 7 8 9 10 11 12 13 14 15 16 17 18 19 20 21 22 23 24 25 26 27 28 29 30 31 32 33 34 35 36 37 38 39 40 41 42 43 44 45 46 47 48 49 50
000
FPUS83 KFGF 300310
OPUFGF
PRAIRIE TO PINES WEATHER ROUNDUP
NATIONAL WEATHER SERVICE EASTERN NORTH DAKOTA/GRAND FORKS ND
900 PM CST THU JAN 29 2015

 **SATELLITE DATA USED TO AUGMENT SKY COVER AT AUTOMATED STATIONS**
 *****  WEATHER ACROSS EASTERN NORTH DAKOTA  *****

CITY           SKY/WX    TMP DP  RH WIND       PRES   REMARKS
GRAND FORKS    PTCLDY     6   0  76 N3        30.58S
GRAND FORKS AF PTCLDY     4  -1  79 N1        30.58S
GRAND CITY NWS   N/A      5 N/A N/A VRB6        N/A  WCI  -6
BUXTON         NOT AVBL
DEVILS LAKE    CLOUDY     9   1  72 E3        30.49F
FARGO          PTCLDY     9   2  73 N7        30.58R WCI  -2
WAHPETON ARPT  CLEAR     12   5  73 N7        30.58R WCI   2
$$

 *****  WEATHER ACROSS CENTRAL AND WESTERN NORTH DAKOTA  *****

CITY           SKY/WX    TMP DP  RH WIND       PRES   REMARKS
JAMESTOWN      CLOUDY    17  10  74 CALM      30.50S
BISMARCK       CLEAR     18  15  88 SE8       30.47S WCI   8
MINOT          CLEAR     12   8  84 E5        30.40F WCI   4
MINOT AFB      CLEAR     10  10  98 SE9       30.40F WCI  -2
GARRISON         N/A     18  15  88 SE8       30.40F WCI   8
WILLISTON      CLEAR     26  20  77 SE5       30.32F WCI  20
DICKINSON      CLEAR     25  19  78 SE13      30.32F WCI  14
HETTINGER      CLEAR     27  16  63 SE7       30.36F WCI  19
$$

 *****  OTHER OBSERVATIONS NORTHEAST NORTH DAKOTA  *****

CITY           SKY/WX    TMP DP  RH WIND       PRES   REMARKS
WALHALLA         N/A      5   1  85 SE3       30.57S
LANGDON        NOT AVBL
CAVALIER       FAIR       5   0  78 CALM      30.58S
GRAFTON        NOT AVBL
CANDO          MOCLDY     7   5  92 SE6       30.49F WCI  -3
FORT TOTTEN      N/A     10   6  82 CALM      29.95
ROLLA          CLOUDY     7   5  92 S7        30.45S WCI  -5
RUGBY          CLOUDY     9   5  85 SE7       30.46F WCI  -3
 ***** THE ABOVE OBSERVATIONS ARE NON NWS ARE NOT QUALITY
        CONTROLLED AND MAY MIS-REPORT RAIN FOR SNOW...
$$

 *****  OTHER OBSERVATIONS SOUTHEAST NORTH DAKOTA *****

CITY           SKY/WX    TMP DP  RH WIND       PRES   REMARKS
COOPERSTOWN    NOT AVBL
VALLEY CITY    FLURRIES  14  12  92 NE5       30.53S WCI   6
OAKES            N/A     18  14  86 N7        30.53S WCI   8
GWINNER        CLOUDY    19  12  73 N7        30.56R WCI  10
BUFFALO        NOT AVBL
WYNDMERE         N/A     12   7  79 NW5         N/A  WCI   4
 ***** THE ABOVE OBSERVATIONS ARE NON NWS ARE NOT QUALITY
       CONTROLLED AND MAY MIS-REPORT RAIN FOR SNOW...
$$

  *****  WEATHER ACROSS NORTHERN MINNESOTA  *****

CITY           SKY/WX    TMP DP  RH WIND       PRES   REMARKS
FLAG ISLAND    PTCLDY    -2  -8  78 NW8       30.50S WCI -17
WARROAD        FAIR      -2  -8  78 NW6       30.52S WCI -14
ROSEAU         PTCLDY     0  -6  78 NW5       30.53S WCI -10
HALLOCK        PTCLDY     1  -4  78 CALM      30.58R
THF RVR FALLS  PTCLDY     1  -2  85 NW5       30.54S WCI  -8
HALSTAD          N/A      6   0  76 N5          N/A  WCI  -3
FOSSTON        FAIR       0  -4  85 NW5       30.52S WCI -10
BAUDETTE       PTCLDY    -1  -6  79 NW8       30.49R WCI -15
WASKISH        PTCLDY     1  -2  85 CALM      30.50S
CROOKSTON      PTCLDY     3   0  85 N7        30.58F WCI  -9
$$
  *****  WEATHER ACROSS CENTRAL AND WEST MINNESOTA  *****

CITY           SKY/WX    TMP DP  RH WIND       PRES   REMARKS
BEMIDJI        PTCLDY     0  -4  85 NW3       30.49S
PARK RAPIDS    MOCLDY     6   1  80 N10       30.48S WCI  -9
WADENA         FAIR       5   1  85 NW3       30.50R
DETROIT LAKES  PTCLDY     5   3  92 N7        30.51F WCI  -7
MOORHEAD       PTCLDY     9   5  85 N6        30.58S WCI  -1
FERGUS FALLS   CLEAR      9   1  72 CALM      30.58R
ELBOW LAKE     FAIR      10   5  81 N9        30.53R WCI  -4
MORRIS MN      CLEAR     12   9  85 NW9       30.54R WCI   0
STAPLES        CLEAR      7   3  85 NW8       30.50R WCI  -6
WHEATON        CLEAR     10   7  85 NW3       30.59R
$$
  *****  WEATHER ELSEWHERE ACROSS MINNESOTA  *****

CITY           SKY/WX    TMP DP  RH WIND       PRES   REMARKS
DULUTH         PTCLDY     8   0  69 NW9       30.41R WCI  -5
INTRNTL FALLS  CLEAR     -3  -7  82 CALM      30.47S
ELY            CLOUDY     9   1  72 NW5       30.41R WCI   0
CLOQUET        CLEAR      9   0  66 NW8       30.44R WCI  -4
BRAINERD       MOCLDY    10   4  76 NW7       30.49R WCI  -1
HIBBING        CLOUDY     7  -2  66 N10       30.44R WCI  -8
ALEXANDRIA     CLEAR     10   4  76 N7        30.50R WCI  -1
SAINT CLOUD    CLEAR     14   7  73 NW8       30.49S WCI   3
MINNEAPOLIS    CLEAR     18   6  59 N13       30.50R WCI   5
$$

  *****  WEATHER ACROSS SOUTH DAKOTA  *****

CITY           SKY/WX    TMP DP  RH WIND       PRES   REMARKS
SIOUX FALLS    CLOUDY    24  17  74 N10       30.52S WCI  14
BROOKINGS      NOT AVBL
WATERTOWN      CLOUDY    19  14  81 NW10      30.49S WCI   7
HURON          CLEAR     20  17  88 E3        30.54R
SISSETON         N/A     16  10  77 N8        30.55R WCI   5
ABERDEEN       CLOUDY    21  14  74 NE9       30.53F WCI  11
MITCHELL       CLEAR     23  19  85 NE3       30.55R
PIERRE         CLEAR     22  18  85 E7        30.46S WCI  13
MOBRIDGE       CLEAR     24  19  81 E10       30.44S WCI  14
RAPID CITY     CLEAR     28  10  46 CALM      30.37F
$$

  *****  SOME WEATHER IN NEARBY STATES *****

CITY           SKY/WX    TMP DP  RH WIND       PRES   REMARKS
GLASGOW MT     CLEAR     30  25  81 SE12      30.22F WCI  20
GREAT FALLS MT CLOUDY    40  19  43 S16       30.19F
CHEYENNE WY    MOCLDY    32  19  58 S10       30.36F WCI  24
SCOTTSBLUFF NE CLEAR     30  22  72 SE7       30.39F WCI  23
OMAHA NE       CLEAR     28  22  78 N9        30.53R WCI  19
DES MOINES IA  PTCLDY    30  20  66 N13       30.48R WCI  20
DAVENPORT IA   CLOUDY    30  20  66 NW20G29   30.36R WCI  17
CHICAGO IL     CLOUDY    34  19  54 NW15      30.22R WCI  24
EAU CLAIRE WI  MOCLDY    19   7  59 N9        30.42R WCI   8
LA CROSSE WI   CLOUDY    26  14  60 NW17G28   30.40R WCI  13
$$

  *****  SOME NATIONAL WEATHER *****

CITY           SKY/WX    TMP DP  RH WIND       PRES   REMARKS
LA GUARDIA NY  CLOUDY    34  26  72 SW8       30.06S
RALEIGH NC     PTCLDY    38  24  57 S5        30.09S
ATLANTA GA     CLOUDY    54  33  45 SW5       30.11F
NEW ORLEANS LA PTCLDY    62  55  77 SW6       30.22S
OKLAHOMA CITY  CLOUDY    46  27  47 N9        30.49R
ALBUQUERQUE NM CLOUDY    44  20  38 E23G35    30.40R
SALT LAKE CITY CLOUDY    39  34  82 CALM      30.25F
LOS ANGELES CA CLOUDY    63  51  65 W6        30.02R
BOISE ID       CLOUDY    40  34  79 NW8       30.33F
SEATTLE WA     CLEAR     44  37  76 N7        30.31S
$$

*** WEATHER ACROSS MANITOBA...SASKATCHEWAN AND ONTARIO ***
                ***ONTARIO***

CITY           SKY/WX    TMP DP  RH WIND       PRES   REMARKS
GERALDTON      PTCLDY    -6  -9  84 NW8       30.30R WCI -21
THUNDER BAY    CLEAR      5  -4  66 NW13      30.44R WCI -12
SIOUX LOOKOUT  CLEAR     -4  -8  84 NW7       30.41S WCI -18
TORONTO        CLOUDY    30  25  80 NW20      29.79R WCI  18
BIG TROUT LK   PTCLDY   -11 -18  70 W8        30.31S WCI -28
PICKLE LAKE    NOT AVBL
DRYDEN         PTCLDY    -2  -6  84 W6        30.43S WCI -14
KENORA         CLEAR     -4  -9  77 NW10      30.46S WCI -21
$$
                *** MANITOBA***

CITY           SKY/WX    TMP DP  RH WIND       PRES   REMARKS
BRANDON        FLURRIES   7   1  78 VRB2      30.48F
DAUPHIN        MOCLDY     3  -2  78 S5        30.47F WCI  -6
ISLAND LAKE    CLEAR    -11 -18  70 W10       30.41F WCI -30
PILOT MOUND      N/A      0  -4  85 E2          N/A
THE PAS        CLOUDY    -4  -9  77 SE5       30.40F WCI -15
THOMPSON       CLEAR    -15 -20  76 W6        30.36F WCI -29
WINNIPEG       CLEAR     -4 -11  71 W5        30.58S WCI -15
LYNN LAKE      CLEAR    -18 -22  83 VRB3      30.29F
CHURCHILL      FLURRIES -11 -20  64 NW18G28   30.20F WCI -36
GILLAM         CLEAR     -9 -18  64 W13       30.28S WCI -30
$$
                ***SASKATCHEWAN***

CITY           SKY/WX    TMP DP  RH WIND       PRES   REMARKS
ESTEVAN        MOCLDY    18  14  86 SE8       30.33F WCI   7
KINDERSLEY     NOT AVBL
LLOYDMINSTER   PTCLDY    12   9  85 S6        30.15F WCI   3
PRINCE ALBERT  FLURRIES   9   3  78 S7        30.29F WCI  -3
REGINA         MOCLDY    16  14  93 SE14      30.28F WCI   1
YORKTON        CLOUDY     5   1  85 SE8       30.36S WCI  -8



USA.gov is the U.S. government's official web portal to all federal, state and local government web resources and services.